Location: Sungai Buloh
(3.1000°N, 113.0000°E)
Time: 16:48:39
(UTC+00:00)

USA 234 - Pass Details

Date: 12 January 2026
Orbit: 1102 x 1106 km, 123.0° (Epoch: 4 January)

Event Time Altitude Azimuth Distance (km) Brightness Sun altitude
Rises 20:10:48 0° 44° (NE) 3,910 6.4 -34.8°
Reaches altitude 10° 20:13:19 10° 47° (NE) 2,953 5.7 -34.3°
Maximum altitude 20:19:43 61° 126° (SE) 1,239 3.6 -32.8°
Drops below altitude 10° 20:26:08 10° 205° (SSW) 2,956 5.5 -31.3°
Sets 20:28:39 0° 208° (SSW) 3,914 6.1 -30.8°
